SCP
0 0 0 0 0 0 0 0 0 0 -0 0 -0 0 0 0 0 -0 0 -0 0 0 0 0 0 0 0 0 0 0 0 0 0 0 0 0 -0 0 0 0 0 0 -0 -0 -0 -0 -0 -0 -0
0 0 0 0 0 0 0 0 0 0 0 0 0 0 -0 0 0 0 -0 0 -0 0 0 0 0 0 0 0 0 0 0 0 0 0 0 0 0 0 -0 -0 -0 -0 -0 -0 -0 -0 -0 -0 -0
0 0 0 0 0 0 0 0 0 0 0 0 0 0 0 0 0 -0 -0 -0 -0 -0 0 -0 0 0 0 0 0 0 -0 0 0 0 0 0 0 0 -0 -0 -0 -0 -0 -0 -0 -0 -0 -0 -0
0 0 0 0 0 0 0 0 0 0 0 0 0 0 0 0 0 0 -0 -0 -0 -0 -0 -0 0 0 0 0 0 -0 0 -0 -0 0 -0 -0 -0 0 -0 -0 -0 -0 -0 -0 -0 -0 -0 -0 -0
0 0 0 0 0 0 0 0 0 0 0 0 0 0 0 0 0 -0 -0 -0 -0 -0 -0 -0 -0 -0 -0 0 -0 -0 -0 0 0 0 -0 -0 -0 -0 -0 -0 -0 -0 -0 -0 -0 -0 -0 -0 -0
0 0 0 0 0 0 0 0 0 0 0 0 0 0 0 0 -0 -0 -0 -0 -0 -0 -0 -0 -0 -0 -0 -0 -0 -0 0 -0 0 0 -0 -0 -0 -0 -0 -0 -0 -0 -0 -0 -0 -0 -0 0 0
0 0 0 0 0 0 0 0 0 0 0 0 0 0 0 0 -0 -0 -0 -0 -0 -0 -0 -0 -0 -0 -0 -0 -0 -0 -0 -0 -0 -0 -0 -0 -0 -0 -0 -0 -0 -0 -0 0 0 0 0 0 0
0 0 0 0 0 0 0 0 0 0 0 0 0 0 0 -0 -0 -0 -0 -0 -0 -0 -0 -0 -0 -0 -0 -0 -0 -0 -0 -0 -0 -0 -0 -0 -0 -0 -0 -0 0 0 0 0 0 0 0 0 0
0 0 0 0 0 0 0 0 0 0 0 0 0 0 0 -0 -0 -0 -0 -0 -0 -0 -0 -0 -0 -0 -0 -0 -0 -0 -0 -0 -0 -0 -0 -0 -0 -0 0 -0 0 0 0 0 0 0 0 0 0
0 0 0 0 0 0 0 0 0 0 0 0 0 0 0 0 -0 -0 -0 -0 -0 -0 -0 -0 -0 -0 -0 -0 -0 -0 -0 0 0 -0 -0 -0 -0 -0 0 0 0 0 0 0 0 0 0 0 0
0 0 0 0 0 0 0 0 0 0 0 0 0 0 0 0 0 0 -0 -0 -0 -0 -0 -0 -0 -0 -0 -0 -0 -0 0 0 0 -0 -0 -0 0 0 0 0 0 0 0 0 0 0 0 0 0
0 0 0 0 0 0 0 0 0 0 0 0 0 0 0 0 0 0 -0 -0 -0 -0 -0 -0 -0 -0 -0 -0 -0 -0 -0 -0 -0 0 -0 -0 0 0 0 0 0 0 0 0 0 0 0 0 0
0 0 0 0 0 0 0 0 0 0 0 0 0 0 0 0 0 0 0 0 0 0 0 -0 -0 -0 -0 0 0 0 0 -0 -0 -0 -0 -0 0 0 0 0 0 0 0 0 0 0 0 0 0
0 0 0 0 0 0 0 0 0 0 0 0 0 0 0 0 0 0 0 0 0 0 0 0 0 0 0 0 0 0 0 0 0 0 0 0 0 0 0 0 0 0 0 0 0 0 0 0 0
0 0 0 0 0 0 0 0 0 0 0 0 0 0 0 0 0 0 0 0 0 0 0 0 0 0 0 0 0 0 0 0 0 0 0 0 0 0 0 0 0 0 0 0 0 0 0 0 0
0 0 0 0 0 0 0 0 0 0 0 0 0 0 0 0 0 0 0 0 0 0 0 0 0 0 0 0 0 0 0 0 0 0 0 0 0 0 0 0 0 0 0 0 0 0 0 0 0
0 0 0 0 0 0 0 0 0 0 0 0 0 0 0 0 0 0 0 0 0 0 0 0 0 0 0 0 0 0 0 0 0 0 0 0 0 0 0 0 0 0 0 0 0 0 0 0 0
0 0 0 0 0 0 0 0 0 0 0 0 0 0 0 0 0 0 0 0 0 0 0 0 0 0 0 0 0 0 0 0 0 0 0 0 0 0 0 0 0 0 0 0 0 0 0 0 0
0 0 0 0 0 0 0 0 0 0 0 0 0 0 0 0 0 0 0 0 0 0 0 0 0 0 0 0 0 0 0 0 0 0 0 0 0 0 0 0 0 0 0 0 0 0 0 0 0
0 0 0 0 0 0 0 0 0 0 -0 0 0 0 0 0 0 0 0 0 0 0 0 0 0 0 0 0 0 0 0 0 0 0 0 0 0 0 0 0 0 0 0 0 0 0 0 0 0
0 0 0 0 0 0 0 -0 0 0 0 0 0 0 0 0 0 0 0 0 0 0 0 0 0 0 0 0 0 0 0 0 0 0 0 0 0 0 0 0 0 0 0 0 0 0 0 0 0
0 0 0 0 0 0 0 -0 -0 0 0 0 0 0 0 0 0 0 0 0 0 0 0 0 0 0 0 0 0 0 0 0 0 0 0 0 0 0 0 0 0 0 0 0 0 0 0 0 0
0 0 0 0 0 0 0 0 -0 0 0 0 0 0 0 0 -0 -0 0 0 0 0 0 0 0 0 0 0 0 0 0 0 0 0 0 0 0 0 0 0 0 0 0 0 0 0 0 0 0
0 0 0 0 0 0 0 0 -0 0 0 0 0 0 0 0 0 -0 0 0 0 0 0 0 0 0 0 0 0 0 0 0 0 0 0 0 0 0 0 0 0 0 0 0 0 0 0 0 0
0 0 0 0 0 0 0 0 0 0 -0 0 -0 0 0 0 0 0 -0 -0 -0 0 0 0 0 0 0 0 0 0 0 0 0 0 0 0 0 0 0 0 0 0 0 0 0 0 0 0 0
0 0 0 0 0 0 0 0 0 0 -0 -0 -0 0 0 0 0 0 0 0 -0 0 0 0 0 0 0 0 0 0 0 0 0 0 0 0 0 0 0 0 0 0 0 0 0 0 0 0 0
0 0 0 0 0 0 0 0 0 0 0 0 0 0 0 0 0 0 0 0 0 0 0 0 0 0 0 0 0 0 0 0 0 0 0 0 0 0 0 0 0 0 0 0 0 0 0 0 0
0 0 0 0 0 0 0 0 0 0 -0 0 0 0 0 0 0 0 0 0 0 0 0 0 0 0 0 0 0 0 0 0 0 0 0 0 0 0 0 0 0 0 0 0 0 0 0 0 0
0 0 0 0 0 0 0 0 0 -0 0 0 0 0 0 0 0 0 0 0 0 0 0 0 0 0 0 0 0 0 0 0 0 0 0 0 0 0 0 0 0 0 0 0 0 0 0 0 0
0 0 0 0 0 0 0 0 0 0 -0 0 0 0 0 0 0 0 0 0 0 0 0 0 0 0 0 0 0 0 0 0 0 0 0 0 0 0 0 0 0 0 0 0 0 0 0 0 0
Wind_Speed_500mb
12 17 17 9 7 4 8 8 4 15 15 6 23 7 5 6 4 6 29 29 29 27 25 21 21 26 26 15 17 23 29 29 25 19 19 19 17 19 19 21 33 34 31 35 34 31 30 30 31
11 14 10 3 5 8 9 7 15 15 14 19 14 10 8 7 6 19 38 36 29 29 27 23 25 24 25 19 18 25 24 24 28 21 20 18 19 18 16 27 29 32 30 31 29 31 31 32 31
10 9 4 2 2 4 7 10 17 12 22 17 10 2 4 7 8 40 32 41 35 30 28 25 25 23 21 23 21 21 24 20 20 22 21 19 17 14 19 29 30 31 29 27 28 32 31 31 31
5 1 6 4 2 2 3 8 15 26 7 9 7 8 5 9 22 26 43 40 37 33 29 25 25 21 19 21 21 22 22 25 22 20 20 19 19 19 24 25 26 30 27 26 26 29 29 29 29
6 1 3 3 3 2 4 1 23 22 17 15 12 10 9 14 32 34 46 41 37 35 30 25 25 22 20 20 20 21 22 21 24 24 26 25 23 23 23 25 26 26 25 25 26 27 27 28 28
5 2 6 13 8 3 5 8 20 18 15 13 9 13 8 19 36 41 45 41 36 33 32 28 25 22 20 20 20 22 22 21 22 22 20 18 20 20 20 21 22 23 24 23 24 25 25 27 26
8 5 8 6 4 4 4 12 24 26 17 14 9 12 7 30 41 46 44 42 38 35 32 30 27 25 22 20 20 19 20 20 18 17 13 13 16 15 17 17 19 20 20 21 21 21 22 24 25
11 4 7 6 9 8 6 17 13 24 14 15 13 8 9 34 45 51 45 44 41 38 35 32 30 27 24 21 18 16 15 16 15 13 11 10 10 12 11 14 15 16 17 17 17 18 19 21 22
14 7 12 11 9 4 9 14 8 12 10 14 19 7 12 42 48 55 52 49 47 43 39 36 32 29 26 23 20 18 15 13 12 11 11 10 8 8 8 8 10 12 13 13 13 14 15 16 16
10 9 17 7 9 3 7 14 14 10 14 14 18 22 20 45 51 60 59 58 53 50 45 39 35 32 29 25 21 18 15 14 11 10 10 9 8 7 6 6 6 7 8 9 9 9 10 10 11
7 10 11 7 9 7 4 10 12 15 15 28 32 33 31 46 53 60 59 57 56 51 48 43 39 36 32 28 24 21 18 15 12 9 8 7 5 5 6 4 4 4 4 4 5 5 5 5 5
8 6 8 11 11 6 6 5 10 26 25 7 25 31 36 45 56 61 63 55 56 55 50 47 43 40 37 33 28 25 21 19 16 12 10 8 7 6 6 6 5 6 5 4 4 3 3 3 2
10 10 11 8 9 7 7 9 10 21 34 23 14 32 38 40 48 53 56 54 55 57 54 50 46 43 39 37 34 31 28 24 21 18 16 14 12 11 10 10 10 10 10 10 10 9 7 6 6
7 14 10 5 6 7 8 6 9 11 26 36 26 32 38 42 46 47 50 57 58 58 56 51 48 44 41 40 37 35 33 30 28 25 23 22 20 18 16 13 13 13 13 14 15 14 13 13 12
7 5 3 11 8 8 11 15 19 20 15 30 39 37 38 42 45 50 49 56 58 59 53 51 47 46 46 43 40 40 38 36 34 32 31 29 27 25 23 21 19 17 16 17 17 18 18 19 18
3 5 5 10 16 11 13 31 16 17 25 30 34 33 38 43 45 47 45 46 53 56 55 53 50 49 48 45 43 43 41 41 40 40 38 36 34 32 30 28 25 24 21 20 20 20 22 23 23
4 10 24 7 22 8 19 20 10 14 27 36 36 34 36 38 46 50 47 43 46 51 54 54 52 50 46 43 41 41 41 43 43 44 45 43 40 37 35 32 28 27 27 26 26 25 24 25 26
14 9 11 15 12 14 15 31 28 13 22 36 34 36 37 41 52 46 49 47 45 52 55 53 54 52 49 47 44 43 42 45 47 48 49 46 43 40 36 35 33 34 32 31 30 29 29 29 31
21 13 20 8 5 7 26 33 34 38 25 28 38 36 41 50 42 45 49 49 50 54 58 60 60 57 59 60 59 57 53 49 49 47 49 48 44 41 41 40 37 37 37 33 34 33 34 34 34
6 8 15 10 3 10 24 35 33 40 43 42 40 42 44 47 47 48 53 55 57 56 58 63 64 63 66 67 64 61 56 55 49 46 45 42 45 47 46 42 40 39 37 36 36 35 36 35 34
12 17 13 12 1 10 15 31 35 27 47 40 44 45 40 48 55 53 56 60 59 61 63 63 64 67 68 67 66 67 66 65 59 58 54 50 49 48 48 47 45 43 41 39 39 41 40 38 39
25 23 21 11 8 13 5 16 16 12 32 30 51 56 60 60 58 60 64 66 65 65 66 68 69 68 66 65 72 77 70 71 62 60 54 52 50 50 45 48 46 45 45 43 41 40 42 43 45
13 22 18 7 12 9 18 14 7 7 19 34 51 58 68 66 71 67 67 64 62 65 70 72 72 71 70 72 75 71 75 71 64 62 58 54 50 50 47 43 49 49 46 43 42 44 42 43 45
32 22 11 4 4 18 29 20 17 20 30 32 44 59 69 83 76 75 76 72 67 69 68 70 73 78 77 74 73 77 74 71 72 67 62 55 49 48 41 36 36 37 38 39 38 36 41 43 43
20 32 8 10 12 15 3 13 27 14 31 29 29 33 41 53 72 89 86 77 72 70 73 74 77 83 80 75 75 74 74 72 72 68 62 58 56 50 39 39 38 37 40 38 38 41 44 42 45
42 36 13 18 13 7 4 18 9 20 44 44 36 35 34 26 45 57 51 54 58 62 72 78 81 83 80 77 73 71 69 71 71 68 64 59 58 54 49 49 44 44 42 41 41 42 39 41 43
33 32 11 11 5 2 12 10 20 33 30 22 31 32 42 39 36 31 30 32 44 52 57 66 75 78 77 74 69 67 64 64 66 63 59 57 58 56 54 52 50 49 47 47 44 43 41 44 43
30 25 15 7 11 12 10 10 18 10 24 15 17 25 37 40 45 49 40 35 35 37 42 44 49 55 58 62 59 56 56 57 59 58 58 55 53 51 48 49 48 48 46 43 42 39 41 40 37
17 29 12 14 8 7 4 7 16 26 13 12 19 27 25 31 31 41 40 29 26 25 24 25 28 34 41 45 48 50 51 51 50 52 53 52 48 45 49 51 51 51 46 43 40 34 39 41 38
26 27 27 13 13 7 2 11 7 14 13 8 18 15 8 16 22 31 34 29 24 24 24 24 26 28 32 34 35 35 37 42 44 48 49 48 49 48 44 47 50 50 48 44 44 38 38 35 32
Wind_Direction_500mb
316 332 339 337 220 240 138 140 113 135 161 141 150 185 174 35 349 51 149 152 154 153 142 124 126 129 124 122 88 118 143 135 130 124 135 131 112 98 94 81 86 81 81 82 74 74 71 70 72
304 329 338 327 242 192 146 145 164 143 138 141 140 130 165 101 96 141 148 152 155 150 146 127 131 133 123 121 99 107 129 143 144 136 123 112 106 99 95 91 91 93 83 80 78 68 67 66 66
288 323 315 353 275 205 153 184 142 122 142 158 150 125 108 107 139 150 158 155 156 154 144 131 133 135 125 109 101 98 104 111 111 116 108 104 101 102 105 97 99 98 92 83 74 66 66 66 65
262 322 41 260 204 94 44 169 157 144 175 188 177 143 114 153 153 160 159 159 157 154 147 136 135 133 128 112 105 103 101 97 101 108 110 96 94 99 106 100 94 93 89 80 73 72 68 67 66
221 140 127 126 233 271 244 259 174 163 159 174 184 156 131 163 163 164 162 163 161 157 153 145 141 138 133 124 110 109 102 97 93 95 102 102 97 87 87 93 88 85 86 84 79 75 69 66 69
141 158 201 214 205 220 240 204 187 179 162 160 185 156 139 180 173 167 164 166 164 165 159 155 148 145 136 132 123 126 115 115 103 100 107 98 91 86 87 92 92 84 81 81 82 76 70 67 74
156 192 220 205 221 260 212 169 195 186 165 185 166 173 164 172 169 170 166 171 169 173 168 164 159 155 149 144 134 132 123 119 122 114 112 95 93 89 87 96 90 86 84 84 84 79 75 73 78
145 145 166 223 236 260 161 174 192 190 185 170 171 193 175 182 170 171 172 175 176 178 179 175 172 165 162 155 148 140 128 123 124 124 116 107 100 98 97 105 101 89 84 86 89 84 79 78 79
142 172 205 204 193 230 157 198 166 200 165 181 191 169 183 180 174 176 178 182 183 182 185 184 182 175 172 168 163 155 150 141 138 133 127 123 120 114 103 105 107 96 87 82 84 85 86 84 82
182 216 200 183 178 206 197 205 174 187 188 202 194 193 173 183 185 185 188 189 189 189 189 191 189 187 183 180 176 173 170 164 159 152 142 142 142 144 129 122 127 107 99 94 92 84 85 85 84
183 216 171 187 192 185 194 202 197 203 215 220 213 194 189 188 194 196 197 200 198 195 196 196 195 195 195 192 190 190 187 186 182 177 163 155 145 151 157 153 164 158 141 121 114 114 111 97 103
176 172 167 156 169 169 196 163 212 216 227 220 225 211 204 195 201 202 203 202 203 203 204 201 203 203 201 202 201 202 201 202 201 200 199 193 182 182 193 205 208 207 208 216 218 218 196 184 174
230 149 186 181 195 218 239 223 246 244 235 240 230 206 212 208 209 207 209 207 208 209 208 207 207 210 209 209 210 212 211 212 213 216 217 218 214 211 212 216 226 228 228 230 233 245 254 255 257
207 175 139 176 213 217 219 227 196 249 230 222 219 213 213 217 215 208 207 212 214 212 212 213 211 214 218 219 218 220 221 220 222 224 227 227 228 230 230 233 233 237 241 245 247 251 258 263 265
97 119 281 220 212 241 201 232 224 238 239 214 214 216 216 217 214 218 218 217 219 216 213 215 216 218 222 225 227 225 226 228 229 231 232 234 235 236 238 241 246 246 246 249 254 259 265 268 269
273 251 169 217 194 219 202 258 245 229 217 219 220 218 218 222 225 220 222 223 219 216 212 215 217 220 224 226 230 231 231 234 235 236 237 238 239 240 241 244 247 250 255 255 258 263 269 270 272
356 220 216 233 208 200 210 260 251 223 213 226 219 221 224 226 225 221 222 223 216 213 212 215 216 219 221 224 229 235 237 236 240 242 241 240 240 241 243 245 250 253 257 260 262 265 269 278 281
177 218 231 211 174 213 211 246 255 242 231 238 228 223 225 229 230 226 221 220 214 213 215 218 221 222 223 226 229 233 233 234 237 240 243 243 244 244 249 250 249 250 257 264 268 271 275 279 284
184 161 240 224 187 223 237 252 253 249 233 244 239 223 223 229 230 227 224 220 217 215 217 220 222 224 227 227 229 232 236 238 239 242 247 245 244 243 245 249 250 254 259 267 270 274 277 279 285
135 124 242 271 174 221 264 261 259 251 239 236 238 236 231 230 229 227 225 222 221 219 220 223 226 225 229 232 235 238 242 245 247 250 250 245 245 242 246 248 250 252 258 263 269 274 279 285 288
195 195 212 259 158 236 287 272 250 241 233 236 240 241 241 236 233 228 229 229 228 226 226 227 230 230 234 236 239 241 243 245 244 244 245 245 249 248 247 249 253 255 260 268 269 272 274 276 279
190 197 218 214 229 253 246 281 245 265 236 220 233 234 238 239 239 236 234 230 230 233 233 234 234 235 238 238 239 241 243 246 251 251 252 252 252 252 254 250 252 257 263 263 269 274 274 274 277
192 167 185 176 242 280 228 263 247 262 257 239 230 232 236 238 241 240 238 235 235 237 237 237 238 238 239 239 241 244 245 249 251 252 255 252 252 251 252 256 252 253 256 261 266 268 272 278 279
137 120 96 123 260 257 245 230 252 241 248 250 240 236 235 239 240 245 247 248 246 244 242 239 238 238 238 240 242 243 245 247 249 249 251 250 249 250 248 249 243 247 253 258 258 263 266 271 279
180 162 156 221 218 247 88 240 256 245 249 235 250 247 238 237 236 241 246 249 250 248 245 240 237 237 239 240 241 243 244 245 247 251 252 251 251 249 245 249 243 250 249 253 252 263 267 266 274
187 179 184 188 199 200 140 239 234 249 254 262 264 264 258 255 244 241 246 248 249 247 244 241 239 238 237 238 237 242 240 239 243 246 249 251 251 249 243 242 242 247 252 248 254 256 266 265 274
182 209 161 105 22 223 211 252 261 254 261 268 266 261 255 241 238 225 232 249 244 240 239 238 238 239 238 238 238 240 238 236 238 242 244 245 245 245 242 238 240 242 243 246 253 251 262 265 272
188 150 187 229 192 228 212 251 234 207 233 265 270 254 258 245 237 232 243 249 246 238 236 233 231 234 238 236 237 238 237 238 239 238 241 243 244 242 238 234 237 240 247 250 248 255 260 262 264
159 192 192 189 221 237 259 227 219 234 170 271 291 267 288 227 234 225 220 227 228 222 219 220 222 221 223 226 230 233 234 234 233 236 240 241 241 238 235 227 230 233 237 239 241 251 257 257 258
197 195 191 190 194 255 17 256 176 213 204 271 315 298 271 225 215 202 196 200 202 202 204 205 207 209 213 215 219 224 227 229 231 237 243 243 240 234 231 227 223 231 231 233 239 249 252 240 247
Wind_Speed_850mb
12 17 17 9 7 4 8 8 4 15 15 6 23 7 5 6 4 6 29 29 29 27 25 21 21 26 26 15 17 23 29 29 25 19 19 19 17 19 19 21 33 34 31 35 34 31 30 30 31
11 14 10 3 5 8 9 7 15 15 14 19 14 10 8 7 6 19 38 36 29 29 27 23 25 24 25 19 18 25 24 24 28 21 20 18 19 18 16 27 29 32 30 31 29 31 31 32 31
10 9 4 2 2 4 7 10 17 12 22 17 10 2 4 7 8 40 32 41 35 30 28 25 25 23 21 23 21 21 24 20 20 22 21 19 17 14 19 29 30 31 29 27 28 32 31 31 31
5 1 6 4 2 2 3 8 15 26 7 9 7 8 5 9 22 26 43 40 37 33 29 25 25 21 19 21 21 22 22 25 22 20 20 19 19 19 24 25 26 30 27 26 26 29 29 29 29
6 1 3 3 3 2 4 1 23 22 17 15 12 10 9 14 32 34 46 41 37 35 30 25 25 22 20 20 20 21 22 21 24 24 26 25 23 23 23 25 26 26 25 25 26 27 27 28 28
5 2 6 13 8 3 5 8 20 18 15 13 9 13 8 19 36 41 45 41 36 33 32 28 25 22 20 20 20 22 22 21 22 22 20 18 20 20 20 21 22 23 24 23 24 25 25 27 26
8 5 8 6 4 4 4 12 24 26 17 14 9 12 7 30 41 46 44 42 38 35 32 30 27 25 22 20 20 19 20 20 18 17 13 13 16 15 17 17 19 20 20 21 21 21 22 24 25
11 4 7 6 9 8 6 17 13 24 14 15 13 8 9 34 45 51 45 44 41 38 35 32 30 27 24 21 18 16 15 16 15 13 11 10 10 12 11 14 15 16 17 17 17 18 19 21 22
14 7 12 11 9 4 9 14 8 12 10 14 19 7 12 42 48 55 52 49 47 43 39 36 32 29 26 23 20 18 15 13 12 11 11 10 8 8 8 8 10 12 13 13 13 14 15 16 16
10 9 17 7 9 3 7 14 14 10 14 14 18 22 20 45 51 60 59 58 53 50 45 39 35 32 29 25 21 18 15 14 11 10 10 9 8 7 6 6 6 7 8 9 9 9 10 10 11
7 10 11 7 9 7 4 10 12 15 15 28 32 33 31 46 53 60 59 57 56 51 48 43 39 36 32 28 24 21 18 15 12 9 8 7 5 5 6 4 4 4 4 4 5 5 5 5 5
8 6 8 11 11 6 6 5 10 26 25 7 25 31 36 45 56 61 63 55 56 55 50 47 43 40 37 33 28 25 21 19 16 12 10 8 7 6 6 6 5 6 5 4 4 3 3 3 2
10 10 11 8 9 7 7 9 10 21 34 23 14 32 38 40 48 53 56 54 55 57 54 50 46 43 39 37 34 31 28 24 21 18 16 14 12 11 10 10 10 10 10 10 10 9 7 6 6
7 14 10 5 6 7 8 6 9 11 26 36 26 32 38 42 46 47 50 57 58 58 56 51 48 44 41 40 37 35 33 30 28 25 23 22 20 18 16 13 13 13 13 14 15 14 13 13 12
7 5 3 11 8 8 11 15 19 20 15 30 39 37 38 42 45 50 49 56 58 59 53 51 47 46 46 43 40 40 38 36 34 32 31 29 27 25 23 21 19 17 16 17 17 18 18 19 18
3 5 5 10 16 11 13 31 16 17 25 30 34 33 38 43 45 47 45 46 53 56 55 53 50 49 48 45 43 43 41 41 40 40 38 36 34 32 30 28 25 24 21 20 20 20 22 23 23
4 10 24 7 22 8 19 20 10 14 27 36 36 34 36 38 46 50 47 43 46 51 54 54 52 50 46 43 41 41 41 43 43 44 45 43 40 37 35 32 28 27 27 26 26 25 24 25 26
14 9 11 15 12 14 15 31 28 13 22 36 34 36 37 41 52 46 49 47 45 52 55 53 54 52 49 47 44 43 42 45 47 48 49 46 43 40 36 35 33 34 32 31 30 29 29 29 31
21 13 20 8 5 7 26 33 34 38 25 28 38 36 41 50 42 45 49 49 50 54 58 60 60 57 59 60 59 57 53 49 49 47 49 48 44 41 41 40 37 37 37 33 34 33 34 34 34
6 8 15 10 3 10 24 35 33 40 43 42 40 42 44 47 47 48 53 55 57 56 58 63 64 63 66 67 64 61 56 55 49 46 45 42 45 47 46 42 40 39 37 36 36 35 36 35 34
12 17 13 12 1 10 15 31 35 27 47 40 44 45 40 48 55 53 56 60 59 61 63 63 64 67 68 67 66 67 66 65 59 58 54 50 49 48 48 47 45 43 41 39 39 41 40 38 39
25 23 21 11 8 13 5 16 16 12 32 30 51 56 60 60 58 60 64 66 65 65 66 68 69 68 66 65 72 77 70 71 62 60 54 52 50 50 45 48 46 45 45 43 41 40 42 43 45
13 22 18 7 12 9 18 14 7 7 19 34 51 58 68 66 71 67 67 64 62 65 70 72 72 71 70 72 75 71 75 71 64 62 58 54 50 50 47 43 49 49 46 43 42 44 42 43 45
32 22 11 4 4 18 29 20 17 20 30 32 44 59 69 83 76 75 76 72 67 69 68 70 73 78 77 74 73 77 74 71 72 67 62 55 49 48 41 36 36 37 38 39 38 36 41 43 43
20 32 8 10 12 15 3 13 27 14 31 29 29 33 41 53 72 89 86 77 72 70 73 74 77 83 80 75 75 74 74 72 72 68 62 58 56 50 39 39 38 37 40 38 38 41 44 42 45
42 36 13 18 13 7 4 18 9 20 44 44 36 35 34 26 45 57 51 54 58 62 72 78 81 83 80 77 73 71 69 71 71 68 64 59 58 54 49 49 44 44 42 41 41 42 39 41 43
33 32 11 11 5 2 12 10 20 33 30 22 31 32 42 39 36 31 30 32 44 52 57 66 75 78 77 74 69 67 64 64 66 63 59 57 58 56 54 52 50 49 47 47 44 43 41 44 43
30 25 15 7 11 12 10 10 18 10 24 15 17 25 37 40 45 49 40 35 35 37 42 44 49 55 58 62 59 56 56 57 59 58 58 55 53 51 48 49 48 48 46 43 42 39 41 40 37
17 29 12 14 8 7 4 7 16 26 13 12 19 27 25 31 31 41 40 29 26 25 24 25 28 34 41 45 48 50 51 51 50 52 53 52 48 45 49 51 51 51 46 43 40 34 39 41 38
26 27 27 13 13 7 2 11 7 14 13 8 18 15 8 16 22 31 34 29 24 24 24 24 26 28 32 34 35 35 37 42 44 48 49 48 49 48 44 47 50 50 48 44 44 38 38 35 32
Wind_Direction_850mb
316 332 339 337 220 240 138 140 113 135 161 141 150 185 174 35 349 51 149 152 154 153 142 124 126 129 124 122 88 118 143 135 130 124 135 131 112 98 94 81 86 81 81 82 74 74 71 70 72
304 329 338 327 242 192 146 145 164 143 138 141 140 130 165 101 96 141 148 152 155 150 146 127 131 133 123 121 99 107 129 143 144 136 123 112 106 99 95 91 91 93 83 80 78 68 67 66 66
288 323 315 353 275 205 153 184 142 122 142 158 150 125 108 107 139 150 158 155 156 154 144 131 133 135 125 109 101 98 104 111 111 116 108 104 101 102 105 97 99 98 92 83 74 66 66 66 65
262 322 41 260 204 94 44 169 157 144 175 188 177 143 114 153 153 160 159 159 157 154 147 136 135 133 128 112 105 103 101 97 101 108 110 96 94 99 106 100 94 93 89 80 73 72 68 67 66
221 140 127 126 233 271 244 259 174 163 159 174 184 156 131 163 163 164 162 163 161 157 153 145 141 138 133 124 110 109 102 97 93 95 102 102 97 87 87 93 88 85 86 84 79 75 69 66 69
141 158 201 214 205 220 240 204 187 179 162 160 185 156 139 180 173 167 164 166 164 165 159 155 148 145 136 132 123 126 115 115 103 100 107 98 91 86 87 92 92 84 81 81 82 76 70 67 74
156 192 220 205 221 260 212 169 195 186 165 185 166 173 164 172 169 170 166 171 169 173 168 164 159 155 149 144 134 132 123 119 122 114 112 95 93 89 87 96 90 86 84 84 84 79 75 73 78
145 145 166 223 236 260 161 174 192 190 185 170 171 193 175 182 170 171 172 175 176 178 179 175 172 165 162 155 148 140 128 123 124 124 116 107 100 98 97 105 101 89 84 86 89 84 79 78 79
142 172 205 204 193 230 157 198 166 200 165 181 191 169 183 180 174 176 178 182 183 182 185 184 182 175 172 168 163 155 150 141 138 133 127 123 120 114 103 105 107 96 87 82 84 85 86 84 82
182 216 200 183 178 206 197 205 174 187 188 202 194 193 173 183 185 185 188 189 189 189 189 191 189 187 183 180 176 173 170 164 159 152 142 142 142 144 129 122 127 107 99 94 92 84 85 85 84
183 216 171 187 192 185 194 202 197 203 215 220 213 194 189 188 194 196 197 200 198 195 196 196 195 195 195 192 190 190 187 186 182 177 163 155 145 151 157 153 164 158 141 121 114 114 111 97 103
176 172 167 156 169 169 196 163 212 216 227 220 225 211 204 195 201 202 203 202 203 203 204 201 203 203 201 202 201 202 201 202 201 200 199 193 182 182 193 205 208 207 208 216 218 218 196 184 174
230 149 186 181 195 218 239 223 246 244 235 240 230 206 212 208 209 207 209 207 208 209 208 207 207 210 209 209 210 212 211 212 213 216 217 218 214 211 212 216 226 228 228 230 233 245 254 255 257
207 175 139 176 213 217 219 227 196 249 230 222 219 213 213 217 215 208 207 212 214 212 212 213 211 214 218 219 218 220 221 220 222 224 227 227 228 230 230 233 233 237 241 245 247 251 258 263 265
97 119 281 220 212 241 201 232 224 238 239 214 214 216 216 217 214 218 218 217 219 216 213 215 216 218 222 225 227 225 226 228 229 231 232 234 235 236 238 241 246 246 246 249 254 259 265 268 269
273 251 169 217 194 219 202 258 245 229 217 219 220 218 218 222 225 220 222 223 219 216 212 215 217 220 224 226 230 231 231 234 235 236 237 238 239 240 241 244 247 250 255 255 258 263 269 270 272
356 220 216 233 208 200 210 260 251 223 213 226 219 221 224 226 225 221 222 223 216 213 212 215 216 219 221 224 229 235 237 236 240 242 241 240 240 241 243 245 250 253 257 260 262 265 269 278 281
177 218 231 211 174 213 211 246 255 242 231 238 228 223 225 229 230 226 221 220 214 213 215 218 221 222 223 226 229 233 233 234 237 240 243 243 244 244 249 250 249 250 257 264 268 271 275 279 284
184 161 240 224 187 223 237 252 253 249 233 244 239 223 223 229 230 227 224 220 217 215 217 220 222 224 227 227 229 232 236 238 239 242 247 245 244 243 245 249 250 254 259 267 270 274 277 279 285
135 124 242 271 174 221 264 261 259 251 239 236 238 236 231 230 229 227 225 222 221 219 220 223 226 225 229 232 235 238 242 245 247 250 250 245 245 242 246 248 250 252 258 263 269 274 279 285 288
195 195 212 259 158 236 287 272 250 241 233 236 240 241 241 236 233 228 229 229 228 226 226 227 230 230 234 236 239 241 243 245 244 244 245 245 249 248 247 249 253 255 260 268 269 272 274 276 279
190 197 218 214 229 253 246 281 245 265 236 220 233 234 238 239 239 236 234 230 230 233 233 234 234 235 238 238 239 241 243 246 251 251 252 252 252 252 254 250 252 257 263 263 269 274 274 274 277
192 167 185 176 242 280 228 263 247 262 257 239 230 232 236 238 241 240 238 235 235 237 237 237 238 238 239 239 241 244 245 249 251 252 255 252 252 251 252 256 252 253 256 261 266 268 272 278 279
137 120 96 123 260 257 245 230 252 241 248 250 240 236 235 239 240 245 247 248 246 244 242 239 238 238 238 240 242 243 245 247 249 249 251 250 249 250 248 249 243 247 253 258 258 263 266 271 279
180 162 156 221 218 247 88 240 256 245 249 235 250 247 238 237 236 241 246 249 250 248 245 240 237 237 239 240 241 243 244 245 247 251 252 251 251 249 245 249 243 250 249 253 252 263 267 266 274
187 179 184 188 199 200 140 239 234 249 254 262 264 264 258 255 244 241 246 248 249 247 244 241 239 238 237 238 237 242 240 239 243 246 249 251 251 249 243 242 242 247 252 248 254 256 266 265 274
182 209 161 105 22 223 211 252 261 254 261 268 266 261 255 241 238 225 232 249 244 240 239 238 238 239 238 238 238 240 238 236 238 242 244 245 245 245 242 238 240 242 243 246 253 251 262 265 272
188 150 187 229 192 228 212 251 234 207 233 265 270 254 258 245 237 232 243 249 246 238 236 233 231 234 238 236 237 238 237 238 239 238 241 243 244 242 238 234 237 240 247 250 248 255 260 262 264
159 192 192 189 221 237 259 227 219 234 170 271 291 267 288 227 234 225 220 227 228 222 219 220 222 221 223 226 230 233 234 234 233 236 240 241 241 238 235 227 230 233 237 239 241 251 257 257 258
197 195 191 190 194 255 17 256 176 213 204 271 315 298 271 225 215 202 196 200 202 202 204 205 207 209 213 215 219 224 227 229 231 237 243 243 240 234 231 227 223 231 231 233 239 249 252 240 247